Location: Sternwarte ZA, Rosenfeld-Brittheim
(48.2889°N, 8.6789°E)
Time: 21:56:45
(UTC+01:00)

ISS - Pass Details

Date: 09 November 2019
Orbit: 412 x 421 km, 51.6° (Epoch: 15 November)

Event Time Altitude Azimuth Distance (km) Brightness Sun altitude
Exits shadow 05:46:48 40° 265° (W) 639 -3.4 -16.1°
Maximum altitude 05:47:43 57° 209° (SSW) 503 -3.6 -15.9°
Drops below altitude 10° 05:51:01 10° 130° (SE) 1,499 -0.1 -15.4°
Sets 05:53:08 0° 126° (SE) 2,358 1.2 -15.1°
